Location: Poughquag
(41.6090°N, 73.6820°W)
Time: 12:10:14
(UTC-04:00)

Transit 2A Rocket - Pass Details

Date: 07 June 2020
Orbit: 584 x 919 km, 66.7° (Epoch: 06 July)

Event Time Altitude Azimuth Distance (km) Brightness Sun altitude
Rises 06:58:19 0° 324° (NW) 3,539 8.2 15.7°
Reaches altitude 10° 07:00:55 10° 319° (NW) 2,610 7.6 16.2°
Maximum altitude 07:06:43 46° 248° (WSW) 1,210 5.8 17.3°
Drops below altitude 10° 07:12:27 10° 176° (S) 2,567 7.7 18.3°
Sets 07:14:59 0° 171° (S) 3,474 8.3 18.7°
